Year,Month,Day,Hour,Minute,Value (Times are PST for temperature in C)
2015,01,27,00,00,8.40
2015,01,27,00,01,8.30
2015,01,27,00,02,8.30
2015,01,27,00,03,8.40
2015,01,27,00,04,8.40
2015,01,27,00,05,8.40
2015,01,27,00,06,8.40
2015,01,27,00,07,8.40
2015,01,27,00,08,8.40
2015,01,27,00,09,8.50
2015,01,27,00,10,8.50
2015,01,27,00,11,8.50
2015,01,27,00,12,8.60
2015,01,27,00,13,8.60
2015,01,27,00,14,8.70
2015,01,27,00,15,8.70
2015,01,27,00,16,8.80
2015,01,27,00,17,8.80
2015,01,27,00,18,8.80
2015,01,27,00,19,8.90
2015,01,27,00,20,8.90
2015,01,27,00,21,8.90
2015,01,27,00,22,9.00
2015,01,27,00,23,9.00
2015,01,27,00,24,9.10
2015,01,27,00,25,9.10
2015,01,27,00,26,9.10
2015,01,27,00,27,9.20
2015,01,27,00,28,9.20
2015,01,27,00,29,9.20
2015,01,27,00,30,9.30
2015,01,27,00,31,9.30
2015,01,27,00,32,9.30
2015,01,27,00,33,9.30
2015,01,27,00,34,9.30
2015,01,27,00,35,9.30
2015,01,27,00,36,9.30
2015,01,27,00,37,9.30
2015,01,27,00,38,9.30
2015,01,27,00,39,9.30
2015,01,27,00,40,9.30
2015,01,27,00,41,9.30
2015,01,27,00,42,9.30
2015,01,27,00,43,9.30
2015,01,27,00,44,9.30
2015,01,27,00,45,9.30
2015,01,27,00,46,9.30
2015,01,27,00,47,9.30
2015,01,27,00,48,9.30
2015,01,27,00,49,9.30
2015,01,27,00,50,9.30
2015,01,27,00,51,9.30
2015,01,27,00,52,9.20
2015,01,27,00,53,9.20
2015,01,27,00,54,9.20
2015,01,27,00,55,9.20
2015,01,27,00,56,9.20
2015,01,27,00,57,9.20
2015,01,27,00,58,9.20
2015,01,27,00,59,9.20
2015,01,27,01,00,9.20
2015,01,27,01,01,9.20
2015,01,27,01,02,9.20
2015,01,27,01,03,9.20
2015,01,27,01,04,9.20
2015,01,27,01,05,9.20
2015,01,27,01,06,9.20
2015,01,27,01,07,9.20
2015,01,27,01,08,9.30
2015,01,27,01,09,9.30
2015,01,27,01,10,9.30
2015,01,27,01,11,9.30
2015,01,27,01,12,9.30
2015,01,27,01,13,9.30
2015,01,27,01,14,9.30
2015,01,27,01,15,9.30
2015,01,27,01,16,9.30
2015,01,27,01,17,9.30
2015,01,27,01,18,9.30
2015,01,27,01,19,9.30
2015,01,27,01,20,9.30
2015,01,27,01,21,9.30
2015,01,27,01,22,9.30
2015,01,27,01,23,9.30
2015,01,27,01,24,9.30
2015,01,27,01,25,9.30
2015,01,27,01,26,9.30
2015,01,27,01,27,9.30
2015,01,27,01,28,9.30
2015,01,27,01,29,9.30
2015,01,27,01,30,9.30
2015,01,27,01,31,9.30
2015,01,27,01,32,9.30
2015,01,27,01,33,9.30
2015,01,27,01,34,9.30
2015,01,27,01,35,9.30
2015,01,27,01,36,9.30
2015,01,27,01,37,9.30
2015,01,27,01,38,9.30
2015,01,27,01,39,9.30
2015,01,27,01,40,9.30
2015,01,27,01,41,9.30
2015,01,27,01,42,9.30
2015,01,27,01,43,9.30
2015,01,27,01,44,9.30
2015,01,27,01,45,9.20
2015,01,27,01,46,9.20
2015,01,27,01,47,9.20
2015,01,27,01,48,9.20
2015,01,27,01,49,9.20
2015,01,27,01,50,9.20
2015,01,27,01,51,9.20
2015,01,27,01,52,9.20
2015,01,27,01,53,9.20
2015,01,27,01,54,9.20
2015,01,27,01,55,9.20
2015,01,27,01,56,9.20
2015,01,27,01,57,9.20
2015,01,27,01,58,9.20
2015,01,27,01,59,9.20
2015,01,27,02,00,9.20
2015,01,27,02,01,9.20
2015,01,27,02,02,9.20
2015,01,27,02,03,9.20
2015,01,27,02,04,9.20
2015,01,27,02,05,9.20
2015,01,27,02,06,9.20
2015,01,27,02,07,9.20
2015,01,27,02,08,9.20
2015,01,27,02,09,9.20
2015,01,27,02,10,9.10
2015,01,27,02,11,9.10
2015,01,27,02,12,9.10
2015,01,27,02,13,9.10
2015,01,27,02,14,9.10
2015,01,27,02,15,9.10
2015,01,27,02,16,9.10
2015,01,27,02,17,9.10
2015,01,27,02,18,9.10
2015,01,27,02,19,9.10
2015,01,27,02,20,9.10
2015,01,27,02,21,9.10
2015,01,27,02,22,9.10
2015,01,27,02,23,9.00
2015,01,27,02,24,9.00
2015,01,27,02,25,9.00
2015,01,27,02,26,9.00
2015,01,27,02,27,9.00
2015,01,27,02,28,9.00
2015,01,27,02,29,9.00
2015,01,27,02,30,9.00
2015,01,27,02,31,9.00
2015,01,27,02,32,9.00
2015,01,27,02,33,9.10
2015,01,27,02,34,9.10
2015,01,27,02,35,9.10
2015,01,27,02,36,9.10
2015,01,27,02,37,9.10
2015,01,27,02,38,9.10
2015,01,27,02,39,9.10
2015,01,27,02,40,9.10
2015,01,27,02,41,9.10
2015,01,27,02,42,9.10
2015,01,27,02,43,9.10
2015,01,27,02,44,9.10
2015,01,27,02,45,9.10
2015,01,27,02,46,9.10
2015,01,27,02,47,9.10
2015,01,27,02,48,9.10
2015,01,27,02,49,9.10
2015,01,27,02,50,9.10
2015,01,27,02,51,9.10
2015,01,27,02,52,9.10
2015,01,27,02,53,9.10
2015,01,27,02,54,9.10
2015,01,27,02,55,9.10
2015,01,27,02,56,9.10
2015,01,27,02,57,9.10
2015,01,27,02,58,9.10
2015,01,27,02,59,9.10
2015,01,27,03,00,9.10
2015,01,27,03,01,9.10
2015,01,27,03,02,9.00
2015,01,27,03,03,9.10
2015,01,27,03,04,9.00
2015,01,27,03,05,9.00
2015,01,27,03,06,9.00
2015,01,27,03,07,9.00
2015,01,27,03,08,9.00
2015,01,27,03,09,9.00
2015,01,27,03,10,9.00
2015,01,27,03,11,9.00
2015,01,27,03,12,8.90
2015,01,27,03,13,8.90
2015,01,27,03,14,8.90
2015,01,27,03,15,8.90
2015,01,27,03,16,8.90
2015,01,27,03,17,8.90
2015,01,27,03,18,8.90
2015,01,27,03,19,8.90
2015,01,27,03,20,8.90
2015,01,27,03,21,8.90
2015,01,27,03,22,8.90
2015,01,27,03,23,8.90
2015,01,27,03,24,8.90
2015,01,27,03,25,8.90
2015,01,27,03,26,8.90
2015,01,27,03,27,8.90
2015,01,27,03,28,8.90
2015,01,27,03,29,8.90
2015,01,27,03,30,8.90
2015,01,27,03,31,8.90
2015,01,27,03,32,8.90
2015,01,27,03,33,8.90
2015,01,27,03,34,8.80
2015,01,27,03,35,8.80
2015,01,27,03,36,8.80
2015,01,27,03,37,8.80
2015,01,27,03,38,8.80
2015,01,27,03,39,8.80
2015,01,27,03,40,8.80
2015,01,27,03,41,8.80
2015,01,27,03,42,8.80
2015,01,27,03,43,8.80
2015,01,27,03,44,8.80
2015,01,27,03,45,8.80
2015,01,27,03,46,8.80
2015,01,27,03,47,8.80
2015,01,27,03,48,8.80
2015,01,27,03,49,8.80
2015,01,27,03,50,8.80
2015,01,27,03,51,8.80
2015,01,27,03,52,8.80
2015,01,27,03,53,8.80
2015,01,27,03,54,8.80
2015,01,27,03,55,8.80
2015,01,27,03,56,8.80
2015,01,27,03,57,8.80
2015,01,27,03,58,8.80
2015,01,27,03,59,8.80
2015,01,27,04,00,8.80
2015,01,27,04,01,8.80
2015,01,27,04,02,8.80
2015,01,27,04,03,8.80
2015,01,27,04,04,8.80
2015,01,27,04,05,8.80
2015,01,27,04,06,8.80
2015,01,27,04,07,8.80
2015,01,27,04,08,8.80
2015,01,27,04,09,8.80
2015,01,27,04,10,8.80
2015,01,27,04,11,8.80
2015,01,27,04,12,8.80
2015,01,27,04,13,8.80
2015,01,27,04,14,8.80
2015,01,27,04,15,8.80
2015,01,27,04,16,8.80
2015,01,27,04,17,8.80
2015,01,27,04,18,8.80
2015,01,27,04,19,8.80
2015,01,27,04,20,8.80
2015,01,27,04,21,8.80
2015,01,27,04,22,8.80
2015,01,27,04,23,8.80
2015,01,27,04,24,8.80
2015,01,27,04,25,8.80
2015,01,27,04,26,8.80
2015,01,27,04,27,8.80
2015,01,27,04,28,8.80
2015,01,27,04,29,8.80
2015,01,27,04,30,8.80
2015,01,27,04,31,8.80
2015,01,27,04,32,8.80
2015,01,27,04,33,8.80
2015,01,27,04,34,8.80
2015,01,27,04,35,8.80
2015,01,27,04,36,8.80
2015,01,27,04,37,8.80
2015,01,27,04,38,8.80
2015,01,27,04,39,8.80
2015,01,27,04,40,8.80
2015,01,27,04,41,8.80
2015,01,27,04,42,8.80
2015,01,27,04,43,8.80
2015,01,27,04,44,8.80
2015,01,27,04,45,8.80
2015,01,27,04,46,8.80
2015,01,27,04,47,8.80
2015,01,27,04,48,8.80
2015,01,27,04,49,8.80
2015,01,27,04,50,8.80
2015,01,27,04,51,8.80
2015,01,27,04,52,8.80
2015,01,27,04,53,8.80
2015,01,27,04,54,8.80
2015,01,27,04,55,8.80
2015,01,27,04,56,8.80
2015,01,27,04,57,8.80
2015,01,27,04,58,8.80
2015,01,27,04,59,8.80
2015,01,27,05,00,8.80
2015,01,27,05,01,8.80
2015,01,27,05,02,8.80
2015,01,27,05,03,8.80
2015,01,27,05,04,8.80
2015,01,27,05,05,8.80
2015,01,27,05,06,8.80
2015,01,27,05,07,8.80
2015,01,27,05,08,8.80
2015,01,27,05,09,8.80
2015,01,27,05,10,8.80
2015,01,27,05,11,8.80
2015,01,27,05,12,8.80
2015,01,27,05,13,8.80
2015,01,27,05,14,8.80
2015,01,27,05,15,8.80
2015,01,27,05,16,8.80
2015,01,27,05,17,8.80
2015,01,27,05,18,8.80
2015,01,27,05,19,8.80
2015,01,27,05,20,8.80
2015,01,27,05,21,8.80
2015,01,27,05,22,8.80
2015,01,27,05,23,8.70
2015,01,27,05,24,8.70
2015,01,27,05,25,8.70
2015,01,27,05,26,8.70
2015,01,27,05,27,8.70
2015,01,27,05,28,8.70
2015,01,27,05,29,8.70
2015,01,27,05,30,8.70
2015,01,27,05,31,8.70
2015,01,27,05,32,8.70
2015,01,27,05,33,8.70
2015,01,27,05,34,8.70
2015,01,27,05,35,8.70
2015,01,27,05,36,8.60
2015,01,27,05,37,8.60
2015,01,27,05,38,8.60
2015,01,27,05,39,8.60
2015,01,27,05,40,8.60
2015,01,27,05,41,8.60
2015,01,27,05,42,8.60
2015,01,27,05,43,8.50
2015,01,27,05,44,8.50
2015,01,27,05,45,8.40
2015,01,27,05,46,8.40
2015,01,27,05,47,8.40
2015,01,27,05,48,8.40
2015,01,27,05,49,8.40
2015,01,27,05,50,8.30
2015,01,27,05,51,8.30
2015,01,27,05,52,8.30
2015,01,27,05,53,8.30
2015,01,27,05,54,8.30
2015,01,27,05,55,8.30
2015,01,27,05,56,8.30
2015,01,27,05,57,8.30
2015,01,27,05,58,8.30
2015,01,27,05,59,8.30
2015,01,27,06,00,8.30
2015,01,27,06,01,8.30
2015,01,27,06,02,8.30
2015,01,27,06,03,8.30
2015,01,27,06,04,8.30
2015,01,27,06,05,8.30
2015,01,27,06,06,8.30
2015,01,27,06,07,8.30
2015,01,27,06,08,8.30
2015,01,27,06,09,8.30
2015,01,27,06,10,8.30
2015,01,27,06,11,8.30
2015,01,27,06,12,8.30
2015,01,27,06,13,8.20
2015,01,27,06,14,8.20
2015,01,27,06,15,8.20
2015,01,27,06,16,8.20
2015,01,27,06,17,8.20
2015,01,27,06,18,8.20
2015,01,27,06,19,8.20
2015,01,27,06,20,8.20
2015,01,27,06,21,8.20
2015,01,27,06,22,8.20
2015,01,27,06,23,8.20
2015,01,27,06,24,8.10
2015,01,27,06,25,8.10
2015,01,27,06,26,8.10
2015,01,27,06,27,8.10
2015,01,27,06,28,8.10
2015,01,27,06,29,8.10
2015,01,27,06,30,8.10
2015,01,27,06,31,8.10
2015,01,27,06,32,8.10
2015,01,27,06,33,8.10
2015,01,27,06,34,8.10
2015,01,27,06,35,8.10
2015,01,27,06,36,8.10
2015,01,27,06,37,8.10
2015,01,27,06,38,8.10
2015,01,27,06,39,8.10
2015,01,27,06,40,8.10
2015,01,27,06,41,8.10
2015,01,27,06,42,8.10
2015,01,27,06,43,8.10
2015,01,27,06,44,8.10
2015,01,27,06,45,8.00
2015,01,27,06,46,8.00
2015,01,27,06,47,8.10
2015,01,27,06,48,8.10
2015,01,27,06,49,8.10
2015,01,27,06,50,8.10
2015,01,27,06,51,8.10
2015,01,27,06,52,8.10
2015,01,27,06,53,8.10
2015,01,27,06,54,8.10
2015,01,27,06,55,8.10
2015,01,27,06,56,8.10
2015,01,27,06,57,8.10
2015,01,27,06,58,8.10
2015,01,27,06,59,8.10
2015,01,27,07,00,8.10
2015,01,27,07,01,8.10
2015,01,27,07,02,8.20
2015,01,27,07,03,8.20
2015,01,27,07,04,8.20
2015,01,27,07,05,8.20
2015,01,27,07,06,8.20
2015,01,27,07,07,8.20
2015,01,27,07,08,8.20
2015,01,27,07,09,8.20
2015,01,27,07,10,8.20
2015,01,27,07,11,8.20
2015,01,27,07,12,8.20
2015,01,27,07,13,8.20
2015,01,27,07,14,8.20
2015,01,27,07,15,8.20
2015,01,27,07,16,8.20
2015,01,27,07,17,8.20
2015,01,27,07,18,8.30
2015,01,27,07,19,8.30
2015,01,27,07,20,8.30
2015,01,27,07,21,8.30
2015,01,27,07,22,8.30
2015,01,27,07,23,8.30
2015,01,27,07,24,8.30
2015,01,27,07,25,8.30
2015,01,27,07,26,8.30
2015,01,27,07,27,8.30
2015,01,27,07,28,8.30
2015,01,27,07,29,8.30
2015,01,27,07,30,8.40
2015,01,27,07,31,8.40
2015,01,27,07,32,8.40
2015,01,27,07,33,8.40
2015,01,27,07,34,8.40
2015,01,27,07,35,8.40
2015,01,27,07,36,8.40
2015,01,27,07,37,8.40
2015,01,27,07,38,8.40
2015,01,27,07,39,8.40
2015,01,27,07,40,8.40
2015,01,27,07,41,8.40
2015,01,27,07,42,8.40
2015,01,27,07,43,8.40
2015,01,27,07,44,8.40
2015,01,27,07,45,8.40
2015,01,27,07,46,8.40
2015,01,27,07,47,8.40
2015,01,27,07,48,8.40
2015,01,27,07,49,8.40
2015,01,27,07,50,8.40
2015,01,27,07,51,8.40
2015,01,27,07,52,8.40
2015,01,27,07,53,8.40
2015,01,27,07,54,8.40
2015,01,27,07,55,8.40
2015,01,27,07,56,8.50
2015,01,27,07,57,8.50
2015,01,27,07,58,8.50
2015,01,27,07,59,8.50
2015,01,27,08,00,8.50
2015,01,27,08,01,8.50
2015,01,27,08,02,8.50
2015,01,27,08,03,8.50
2015,01,27,08,04,8.50
2015,01,27,08,05,8.60
2015,01,27,08,06,8.60
2015,01,27,08,07,8.60
2015,01,27,08,08,8.60
2015,01,27,08,09,8.60
2015,01,27,08,10,8.60
2015,01,27,08,11,8.60
2015,01,27,08,12,8.60
2015,01,27,08,13,8.60
2015,01,27,08,14,8.60
2015,01,27,08,15,8.60
2015,01,27,08,16,8.60
2015,01,27,08,17,8.60
2015,01,27,08,18,8.70
2015,01,27,08,19,8.70
2015,01,27,08,20,8.70
2015,01,27,08,21,8.70
2015,01,27,08,22,8.70
2015,01,27,08,23,8.70
2015,01,27,08,24,8.70
2015,01,27,08,25,8.70
2015,01,27,08,26,8.70
2015,01,27,08,27,8.70
2015,01,27,08,28,8.70
2015,01,27,08,29,8.70
2015,01,27,08,30,8.70
2015,01,27,08,31,8.70
2015,01,27,08,32,8.70
2015,01,27,08,33,8.80
2015,01,27,08,34,8.80
2015,01,27,08,35,8.80
2015,01,27,08,36,8.80
2015,01,27,08,37,8.80
2015,01,27,08,38,8.80
2015,01,27,08,39,8.80
2015,01,27,08,40,8.70
2015,01,27,08,41,8.70
2015,01,27,08,42,8.80
2015,01,27,08,43,8.80
2015,01,27,08,44,8.80
2015,01,27,08,45,8.80
2015,01,27,08,46,8.80
2015,01,27,08,47,8.80
2015,01,27,08,48,8.80
2015,01,27,08,49,8.80
2015,01,27,08,50,8.80
2015,01,27,08,51,8.80
2015,01,27,08,52,8.80
2015,01,27,08,53,8.80
2015,01,27,08,54,8.80
2015,01,27,08,55,8.80
2015,01,27,08,56,8.80
2015,01,27,08,57,8.80
2015,01,27,10,05,9.10
2015,01,27,10,06,9.10
2015,01,27,10,07,9.10
2015,01,27,10,08,9.10
2015,01,27,10,09,9.10
2015,01,27,10,10,9.10
2015,01,27,10,11,9.10
2015,01,27,10,12,9.10
2015,01,27,10,13,9.20
2015,01,27,10,14,9.20
2015,01,27,10,15,9.20
2015,01,27,10,16,9.20
2015,01,27,10,17,9.20
2015,01,27,10,18,9.20
2015,01,27,10,19,9.20
2015,01,27,10,20,9.20
2015,01,27,10,21,9.20
2015,01,27,10,22,9.20
2015,01,27,10,23,9.20
2015,01,27,10,24,9.30
2015,01,27,10,25,9.30
2015,01,27,10,26,9.30
2015,01,27,10,27,9.30
2015,01,27,10,28,9.30
2015,01,27,10,29,9.30
2015,01,27,10,30,9.40
2015,01,27,10,31,9.40
2015,01,27,10,32,9.40
2015,01,27,10,33,9.40
2015,01,27,10,34,9.40
2015,01,27,10,35,9.40
2015,01,27,10,36,9.40
2015,01,27,10,37,9.50
2015,01,27,10,38,9.40
2015,01,27,10,39,9.50
2015,01,27,10,40,9.50
2015,01,27,10,41,9.50
2015,01,27,10,42,9.50
2015,01,27,10,43,9.60
2015,01,27,10,44,9.60
2015,01,27,10,45,9.60
2015,01,27,10,46,9.60
2015,01,27,10,47,9.60
2015,01,27,10,48,9.60
2015,01,27,10,49,9.60
2015,01,27,10,50,9.60
2015,01,27,10,51,9.60
2015,01,27,10,52,9.70
2015,01,27,10,53,9.70
2015,01,27,10,54,9.70
2015,01,27,10,55,9.70
2015,01,27,10,56,9.70
2015,01,27,10,57,9.70
2015,01,27,10,58,9.70
2015,01,27,10,59,9.70
2015,01,27,11,00,9.70
2015,01,27,11,01,9.70
2015,01,27,11,02,9.70
2015,01,27,11,03,9.70
2015,01,27,11,04,9.70
2015,01,27,11,05,9.70
2015,01,27,11,06,9.70
2015,01,27,11,07,9.70
2015,01,27,11,08,9.70
2015,01,27,11,09,9.70
2015,01,27,11,10,9.70
2015,01,27,11,11,9.70
2015,01,27,11,12,9.80
2015,01,27,11,13,9.80
2015,01,27,11,14,9.80
2015,01,27,11,15,9.80
2015,01,27,11,16,9.80
2015,01,27,11,17,9.80
2015,01,27,11,18,9.80
2015,01,27,11,19,9.80
2015,01,27,11,20,9.70
2015,01,27,11,21,9.70
2015,01,27,11,22,9.70
2015,01,27,11,23,9.70
2015,01,27,11,24,9.70
2015,01,27,11,25,9.70
2015,01,27,11,26,9.80
2015,01,27,11,27,9.80
2015,01,27,11,28,9.80
2015,01,27,11,29,9.80
2015,01,27,11,30,9.80
2015,01,27,11,31,9.80
2015,01,27,11,32,9.80
2015,01,27,11,33,9.80
2015,01,27,11,34,9.80
2015,01,27,11,35,9.80
2015,01,27,11,36,9.80
2015,01,27,11,37,9.80
2015,01,27,11,38,9.80
2015,01,27,11,39,9.80
2015,01,27,11,40,9.90
2015,01,27,11,41,9.90
2015,01,27,11,42,9.90
2015,01,27,11,43,9.90
2015,01,27,11,44,9.90
2015,01,27,11,45,9.90
2015,01,27,11,46,9.90
2015,01,27,11,47,9.90
2015,01,27,11,48,9.90
2015,01,27,11,49,9.90
2015,01,27,11,50,10.00
2015,01,27,11,51,10.00
2015,01,27,11,52,10.10
2015,01,27,11,53,10.10
2015,01,27,11,54,10.10
2015,01,27,11,55,10.10
2015,01,27,11,56,10.10
2015,01,27,11,57,10.10
2015,01,27,11,58,10.10
2015,01,27,11,59,10.20
2015,01,27,12,00,10.20
2015,01,27,12,01,10.20
2015,01,27,12,02,10.20
2015,01,27,12,03,10.30
2015,01,27,12,04,10.30
2015,01,27,12,05,10.30
2015,01,27,12,06,10.30
2015,01,27,12,07,10.30
2015,01,27,12,08,10.30
2015,01,27,12,09,10.30
2015,01,27,12,10,10.30
2015,01,27,12,11,10.30
2015,01,27,12,12,10.30
2015,01,27,12,13,10.30
2015,01,27,12,14,10.30
2015,01,27,12,15,10.30
2015,01,27,12,16,10.30
2015,01,27,12,17,10.20
2015,01,27,12,18,10.20
2015,01,27,12,19,10.30
2015,01,27,12,20,10.30
2015,01,27,12,21,10.30
2015,01,27,12,22,10.30
2015,01,27,12,23,10.30
2015,01,27,12,24,10.40
2015,01,27,12,25,10.40
2015,01,27,12,26,10.40
2015,01,27,12,27,10.50
2015,01,27,12,28,10.50
2015,01,27,12,29,10.60
2015,01,27,12,30,10.60
2015,01,27,12,31,10.60
2015,01,27,12,32,10.60
2015,01,27,12,33,10.60
2015,01,27,12,34,10.60
2015,01,27,12,35,10.60
2015,01,27,12,36,10.60
2015,01,27,12,37,10.60
2015,01,27,12,38,10.60
2015,01,27,12,39,10.60
2015,01,27,12,40,10.60
2015,01,27,12,41,10.60
2015,01,27,12,42,10.60
2015,01,27,12,43,10.60
2015,01,27,12,44,10.60
2015,01,27,12,45,10.60
2015,01,27,12,46,10.60
2015,01,27,12,47,10.70
2015,01,27,12,48,10.70
2015,01,27,12,49,10.70
2015,01,27,12,50,10.70
2015,01,27,12,51,10.70
2015,01,27,12,52,10.70
2015,01,27,12,53,10.70
2015,01,27,12,54,10.70
2015,01,27,12,55,10.70
2015,01,27,12,56,10.70
2015,01,27,12,57,10.70
2015,01,27,12,58,10.70
2015,01,27,12,59,10.70
2015,01,27,13,00,10.70
2015,01,27,13,01,10.70
2015,01,27,13,02,10.70
2015,01,27,13,03,10.70
2015,01,27,13,04,10.70
2015,01,27,13,05,10.70
2015,01,27,13,06,10.80
2015,01,27,13,07,10.80
2015,01,27,13,08,10.80
2015,01,27,13,09,10.80
2015,01,27,13,10,10.80
2015,01,27,13,11,10.80
2015,01,27,13,12,10.90
2015,01,27,13,13,10.90
2015,01,27,13,14,10.80
2015,01,27,13,15,10.80
2015,01,27,13,16,10.80
2015,01,27,13,17,10.80
2015,01,27,13,18,10.80
2015,01,27,13,19,10.80
2015,01,27,13,20,10.80
2015,01,27,13,21,10.80
2015,01,27,13,22,10.80
2015,01,27,13,23,10.70
2015,01,27,13,24,10.70
2015,01,27,13,25,10.70
2015,01,27,13,26,10.70
2015,01,27,13,27,10.70
2015,01,27,13,28,10.80
2015,01,27,13,29,10.80
2015,01,27,13,30,10.80
2015,01,27,13,31,10.80
2015,01,27,13,32,10.80
2015,01,27,13,33,10.80
2015,01,27,13,34,10.80
2015,01,27,13,35,10.80
2015,01,27,13,36,10.90
2015,01,27,13,37,11.00
2015,01,27,13,38,11.10
2015,01,27,13,39,11.10
2015,01,27,13,40,11.20
2015,01,27,13,41,11.20
2015,01,27,13,42,11.30
2015,01,27,13,43,11.40
2015,01,27,13,44,11.40
2015,01,27,13,45,11.50
2015,01,27,13,46,11.60
2015,01,27,13,47,11.60
2015,01,27,13,48,11.60
2015,01,27,13,49,11.50
2015,01,27,13,50,11.50
2015,01,27,13,51,11.50
2015,01,27,13,52,11.50
2015,01,27,13,53,11.50
2015,01,27,13,54,11.50
2015,01,27,13,55,11.50
2015,01,27,13,56,11.50
2015,01,27,13,57,11.50
2015,01,27,13,58,11.50
2015,01,27,13,59,11.50
2015,01,27,14,00,11.50
2015,01,27,19,57,7.70
2015,01,27,19,58,7.70
2015,01,27,19,59,7.70
2015,01,27,20,00,7.70
2015,01,27,20,01,7.70
2015,01,27,20,02,7.60
2015,01,27,20,03,7.60
2015,01,27,20,04,7.60
2015,01,27,20,05,7.60
2015,01,27,20,06,7.60
2015,01,27,20,07,7.60
2015,01,27,20,08,7.60
2015,01,27,20,09,7.60
2015,01,27,20,10,7.60
2015,01,27,20,11,7.60
2015,01,27,20,12,7.60
2015,01,27,20,13,7.50
2015,01,27,20,14,7.50
2015,01,27,20,15,7.50
2015,01,27,20,16,7.50
2015,01,27,20,17,7.50
2015,01,27,20,18,7.50
2015,01,27,20,19,7.50
2015,01,27,20,20,7.40
2015,01,27,20,21,7.40
2015,01,27,20,22,7.40
2015,01,27,20,23,7.40
2015,01,27,20,24,7.40
2015,01,27,20,25,7.40
2015,01,27,20,26,7.40
2015,01,27,20,27,7.40
2015,01,27,20,28,7.40
2015,01,27,20,29,7.40
2015,01,27,20,30,7.30
2015,01,27,20,31,7.30
2015,01,27,20,32,7.30
2015,01,27,20,33,7.30
2015,01,27,20,34,7.30
2015,01,27,20,35,7.30
2015,01,27,20,36,7.30
2015,01,27,20,37,7.30
2015,01,27,20,38,7.30
2015,01,27,20,39,7.30
2015,01,27,20,40,7.30
2015,01,27,20,41,7.30
2015,01,27,20,42,7.30
2015,01,27,20,43,7.30
2015,01,27,20,44,7.30
2015,01,27,20,45,7.30
2015,01,27,20,46,7.30
2015,01,27,20,47,7.30
2015,01,27,20,48,7.30
2015,01,27,20,49,7.30
2015,01,27,20,50,7.30
2015,01,27,20,51,7.30
2015,01,27,20,52,7.30
2015,01,27,20,53,7.30
2015,01,27,20,54,7.30
2015,01,27,20,55,7.30
2015,01,27,20,56,7.30
2015,01,27,20,57,7.30
2015,01,27,20,58,7.30
2015,01,27,20,59,7.30
2015,01,27,21,00,7.30
2015,01,27,21,01,7.30
2015,01,27,21,02,7.30
2015,01,27,21,03,7.30
2015,01,27,21,04,7.30
2015,01,27,21,05,7.30
2015,01,27,21,06,7.30
2015,01,27,21,07,7.30
2015,01,27,21,08,7.30
2015,01,27,21,09,7.30
2015,01,27,21,10,7.30
2015,01,27,21,11,7.20
2015,01,27,21,12,7.20
2015,01,27,21,13,7.20
2015,01,27,21,14,7.20
2015,01,27,21,15,7.20
2015,01,27,21,16,7.20
2015,01,27,21,17,7.20
2015,01,27,21,18,7.20
2015,01,27,21,19,7.20
2015,01,27,21,20,7.10
2015,01,27,21,21,7.10
2015,01,27,21,22,7.10
2015,01,27,21,23,7.10
2015,01,27,21,24,7.00
2015,01,27,21,25,7.00
2015,01,27,21,26,7.00
2015,01,27,21,27,7.00
2015,01,27,21,28,6.90
2015,01,27,21,29,6.90
2015,01,27,21,30,6.90
2015,01,27,21,31,6.90
2015,01,27,21,32,6.90
2015,01,27,21,33,6.90
2015,01,27,21,34,6.90
2015,01,27,21,35,6.90
2015,01,27,21,36,6.90
2015,01,27,21,37,6.90
2015,01,27,21,38,6.90
2015,01,27,21,39,6.90
2015,01,27,21,40,6.90
2015,01,27,21,41,6.80
2015,01,27,21,42,6.80
2015,01,27,21,43,6.80
2015,01,27,21,44,6.90
2015,01,27,21,45,6.90
2015,01,27,21,46,6.90
2015,01,27,21,47,6.90
2015,01,27,21,48,6.90
2015,01,27,21,49,6.90
2015,01,27,21,50,6.90
2015,01,27,21,51,6.80
2015,01,27,21,52,6.80
2015,01,27,21,53,6.80
2015,01,27,21,54,6.80
2015,01,27,21,55,6.80
2015,01,27,21,56,6.80
2015,01,27,21,57,6.80
2015,01,27,21,58,6.80
2015,01,27,21,59,6.80
2015,01,27,22,00,6.80
2015,01,27,22,01,6.70
2015,01,27,22,02,6.70
2015,01,27,22,03,6.70
2015,01,27,22,04,6.70
2015,01,27,22,05,6.70
2015,01,27,22,06,6.60
2015,01,27,22,07,6.60
2015,01,27,22,08,6.60
2015,01,27,22,09,6.60
2015,01,27,22,10,6.50
2015,01,27,22,11,6.50
2015,01,27,22,12,6.50
2015,01,27,22,13,6.40
2015,01,27,22,14,6.40
2015,01,27,22,15,6.40
2015,01,27,22,16,6.40
2015,01,27,22,17,6.40
2015,01,27,22,18,6.40
2015,01,27,22,19,6.40
2015,01,27,22,20,6.40
2015,01,27,22,21,6.40
2015,01,27,22,22,6.30
2015,01,27,22,23,6.30
2015,01,27,22,24,6.30
2015,01,27,22,25,6.30
2015,01,27,22,26,6.30
2015,01,27,22,27,6.30
2015,01,27,22,28,6.30
2015,01,27,22,29,6.30
2015,01,27,22,30,6.30
2015,01,27,22,31,6.30
2015,01,27,22,32,6.30
2015,01,27,22,33,6.30
2015,01,27,22,34,6.30
2015,01,27,22,35,6.30
2015,01,27,22,36,6.30
2015,01,27,22,37,6.30
2015,01,27,22,38,6.30
2015,01,27,22,39,6.30
2015,01,27,22,40,6.30
2015,01,27,22,41,6.30
2015,01,27,22,42,6.30
2015,01,27,22,43,6.30
2015,01,27,22,44,6.30
2015,01,27,22,45,6.30
2015,01,27,22,46,6.30
2015,01,27,22,47,6.20
2015,01,27,22,48,6.20
2015,01,27,22,49,6.20
2015,01,27,22,50,6.20
2015,01,27,22,51,6.20
2015,01,27,22,52,6.20
2015,01,27,22,53,6.20
2015,01,27,22,54,6.20
2015,01,27,22,55,6.20
2015,01,27,22,56,6.20
2015,01,27,22,57,6.20
2015,01,27,22,58,6.20
2015,01,27,22,59,6.20
2015,01,27,23,00,6.20
2015,01,27,23,01,6.10
2015,01,27,23,02,6.10
2015,01,27,23,03,6.00
2015,01,27,23,04,6.00
2015,01,27,23,05,6.00
2015,01,27,23,06,5.90
2015,01,27,23,07,5.90
2015,01,27,23,08,5.90
2015,01,27,23,09,5.80
2015,01,27,23,10,5.80
2015,01,27,23,11,5.80
2015,01,27,23,12,5.70
2015,01,27,23,13,5.60
2015,01,27,23,14,5.60
2015,01,27,23,15,5.50
2015,01,27,23,16,5.50
2015,01,27,23,17,5.40
2015,01,27,23,18,5.40
2015,01,27,23,19,5.30
2015,01,27,23,20,5.30
2015,01,27,23,21,5.30
2015,01,27,23,22,5.20
2015,01,27,23,23,5.20
2015,01,27,23,24,5.20
2015,01,27,23,25,5.10
2015,01,27,23,26,5.10
2015,01,27,23,27,5.00
2015,01,27,23,28,4.90
2015,01,27,23,29,4.90
2015,01,27,23,30,4.90
2015,01,27,23,31,4.80
2015,01,27,23,32,4.80
2015,01,27,23,33,4.80
2015,01,27,23,34,4.80
2015,01,27,23,35,4.80
2015,01,27,23,36,4.80
2015,01,27,23,37,4.80
2015,01,27,23,38,4.80
2015,01,27,23,39,4.80
2015,01,27,23,40,4.70
2015,01,27,23,41,4.70
2015,01,27,23,42,4.70
2015,01,27,23,43,4.70
2015,01,27,23,44,4.70
2015,01,27,23,45,4.70
2015,01,27,23,46,4.70
2015,01,27,23,47,4.70
2015,01,27,23,48,4.70
2015,01,27,23,49,4.70
2015,01,27,23,50,4.70
2015,01,27,23,51,4.70
2015,01,27,23,52,4.70
2015,01,27,23,53,4.70
2015,01,27,23,54,4.70
2015,01,27,23,55,4.70
2015,01,27,23,56,4.70
2015,01,27,23,57,4.70
2015,01,27,23,58,4.70
2015,01,27,23,59,4.70
